Flag for Cuba Weather past 2 weeks in Santiago de Cuba, Cuba

75 °F

Scattered showers. Partly cloudy.

Feels Like: 75 °F
Forecast: 73 / 83 °F
Wind: 12 mph from North

Location: Santiago De Cuba - Oriente

Current Time: Nov 24, 2015 at 7:13:52 PM

Latest Report: Nov 24, 2015 at 5:50 PM

Visibility: 4 mi

Pressure: N/A

Humidity: 83%

Dew point: 70 °F

Location of Santiago de CubaLocation

Historic Weather in Santiago de Cuba — Graph


Santiago de Cuba temperature yesterday

Maximum temperature yesterday: 86 °F (at 10:53 AM)
Minimum temperature yesterday: 73 °F (at 12:51 AM)
Average temperature yesterday: 79 °F

Past Weeks' High & Low Weather Summary

High90 °F (Nov 12, 10:53 AM)100% (Nov 22, 10:51 PM)30.04 "Hg (Nov 22, 10:51 PM)
Low70 °F (Nov 22, 2:51 AM)46% (Nov 21, 10:50 AM)29.83 "Hg (Nov 20, 2:50 PM)
Average80 °F73%29.94 "Hg
* Reported Nov 9 4:51 PM — Nov 24 4:51 PM, Santiago de Cuba, Weather by CustomWeather, © 2015

Note: Actual official high and low records may vary slightly from our data, if they occured in-between our weather recording intervals... More about our weather records


Santiago de Cuba weather history for previous 24 hours

Time TempWeatherWind HumidityBarometerVisibility
4:51 PM
Tue, Nov 24
75 °FScattered showers. Scattered clouds.5 mphN/AN/A4 mi
3:52 PM77 °FScattered showers. Scattered clouds.6 mph83%N/A4 mi
2:51 PM79 °FScattered showers. Scattered clouds.12 mph74%29.92 "Hg5 mi
1:52 PM81 °FScattered showers. Scattered clouds.10 mph66%N/A6 mi
12:50 PM84 °FScattered clouds.9 mph62%29.89 "Hg6 mi
11:51 AM88 °FScattered clouds.7 mph52%29.92 "Hg6 mi
9:51 AM84 °FScattered clouds.10 mph62%29.98 "HgN/A
8:50 AM81 °FScattered clouds.8 mph70%29.98 "HgN/A
7:50 AM75 °FScattered clouds.8 mph89%29.98 "Hg6 mi
6:50 AM73 °FPassing clouds.7 mph94%29.95 "Hg6 mi
5:50 AM73 °FPassing clouds.7 mph94%29.95 "Hg6 mi
4:50 AM73 °FPassing clouds.6 mph94%29.92 "Hg6 mi
3:50 AM75 °FPassing clouds.9 mph89%29.92 "Hg6 mi
2:51 AM75 °FPassing clouds.7 mph89%29.92 "Hg6 mi
1:50 AM75 °FPassing clouds.6 mph89%29.92 "Hg6 mi
12:50 AM75 °FPassing clouds.5 mph83%29.95 "Hg6 mi
11:50 PM
Mon, Nov 23
75 °FPassing clouds.6 mph83%29.95 "Hg6 mi
10:50 PM77 °FPassing clouds.6 mph79%29.98 "Hg6 mi
9:51 PM77 °FPartly cloudy.7 mph74%29.98 "Hg6 mi
8:50 PM77 °FPassing clouds.7 mph74%29.95 "Hg6 mi
7:51 PM79 °FPassing clouds.8 mph74%29.95 "Hg6 mi
Weather by CustomWeather, © 2015

See weather overviewHow to use our weather pages